[[{"header":{"parameterUnit":"m.s-1","parameterCategory":1,"la1":30.2991,"la2":30.254,"lo1":-89.0895,"lo2":-89.0444,"dy":0.0017,"dx":0.0017,"nx":28,"ny":28,"refTime":"2025-02-26T09:00:00:Z","depth":0,"parameterNumber":2,"parameterNumberName":"U-component_of_WINDS"},"data":[0,0,0,0,0,0,0,0,0,0,0,0,0,0,0,0,0,0,0,0,0,0,0,0,0,0,0,0,0,0,0,0,0,0,0,0,0,0,0,0,0,0,0,0,0,0,0,0,0,0,0,0,0,0,0,0,0,0,1.062,1.062,0,1.0659,1.066,1.066,1.065,1.065,1.0649,1.0648,1.0687,1.0689,1.069,0,0,0,0,0,0,0,0,0,0,0,0,0,1.0536,1.0538,1.062,1.062,1.0621,1.0659,1.066,1.066,1.0651,1.065,1.0649,1.0648,1.0686,1.0688,1.069,0,0,0,0,0,0,0,0,0,0,0,0,0,1.0574,1.0538,1.062,1.0621,1.0621,1.0659,1.066,1.066,1.0651,1.065,1.0649,1.0647,1.0686,1.0688,1.0691,1.073,0,0,1.0699,1.07,0,0,0,0,0,0,0,0,1.0572,1.0577,1.062,1.0621,1.0621,1.0649,1.0644,1.0684,1.0651,1.0639,1.0648,1.0647,1.0675,1.0678,1.0688,1.0731,1.0733,1.0699,1.0701,1.0702,1.0702,0,0,0,0,0,0,0,1.0569,1.0575,1.0635,1.0621,1.0621,1.0619,1.0623,1.0652,1.0663,1.064,1.064,1.0645,1.0675,1.0686,1.0689,1.0734,1.0699,1.0701,1.0703,1.0704,1.0813,1.0814,0,0,0,0,0,0,1.0566,1.0573,1.0634,1.0637,1.0593,1.0622,1.0626,1.0641,1.0663,1.0665,1.0646,1.0644,1.0682,1.0686,1.069,1.0739,1.0702,1.0704,1.0706,1.0812,1.0813,1.0815,0,0,0,0,0,0,1.0564,1.0571,1.0632,1.0605,1.0612,1.0624,1.0641,1.0642,1.0653,1.0667,1.0669,1.0654,1.0681,1.0687,1.0721,1.074,1.0705,1.0708,1.081,1.0812,1.0814,1.0835,0,0,0,0,0,0,1.0562,1.0571,1.0586,1.0605,1.0614,1.0662,1.0642,1.0644,1.0658,1.0656,1.0676,1.0678,1.0681,1.0717,1.0723,1.0743,1.071,1.0808,1.0811,1.0813,1.0833,1.0838,1.0842,0,0,0,0,0,1.0559,1.0589,1.0586,1.0594,1.0633,1.0663,1.0668,1.0672,1.0659,1.0675,1.0684,1.0677,1.0737,1.072,1.0727,1.0748,1.0807,1.081,1.0813,1.0831,1.0837,1.0842,0,0,0,0,0,0,1.0571,1.0592,1.0589,1.0626,1.0643,1.0661,1.0681,1.0677,1.0697,1.0695,1.0698,1.0702,1.0737,1.0746,1.0727,1.0788,1.077,1.0775,1.0781,1.0787,1.0791,1.0789,1.0712,0,0,0,0,0,1.0578,1.0601,1.0618,1.065,1.0658,1.0668,1.0682,1.0683,1.07,1.0707,1.0719,1.0735,1.0758,1.0773,1.0794,1.0834,1.0839,1.0852,1.0857,1.086,1.0864,1.0888,1.0894,1.0825,1.0825,1.0824,0,0,1.0592,1.0607,1.0621,1.0653,1.0666,1.069,1.0674,1.07,1.0718,1.0711,1.0744,1.0753,1.0772,1.081,1.0827,1.0818,1.0885,1.0864,1.0867,1.0869,1.0891,1.0898,1.0904,1.0827,1.0826,1.0826,0,0,1.0632,1.0645,1.0673,1.0687,1.0708,1.0715,1.0722,1.0741,1.0747,1.0781,1.0776,1.0798,1.0837,1.0851,1.0863,1.0911,1.0906,1.0918,1.0941,1.0964,1.097,1.0974,1.0992,1.0999,1.0922,1.0922,1.0922,0,1.0647,1.0684,1.0688,1.0715,1.073,1.0726,1.0755,1.0768,1.0795,1.0805,1.0795,1.0845,1.0857,1.0899,1.0911,1.0921,1.0929,1.0915,1.0968,1.0973,1.0978,1.0995,1.1002,1.0923,1.0923,1.0923,1.0923,0,1.0703,1.0728,1.0749,1.0776,1.0793,1.0821,1.083,1.0846,1.0847,1.0855,1.089,1.0905,1.093,1.094,1.094,1.0982,1.0977,1.0968,1.095,1.0986,1.1002,1.1009,1.0925,1.0925,1.0924,1.0924,0,0,1.0749,1.078,1.0788,1.0801,1.0824,1.0844,1.0873,1.0899,1.0914,1.0932,1.0957,1.0991,1.0984,1.0998,1.0999,1.1019,1.1058,1.1008,1.1009,1.1018,1.1107,1.1114,1.1121,1.1055,1.1056,1.1057,1.1106,0,1.0791,1.0842,1.0848,1.0893,1.0918,1.0915,1.0941,1.0958,1.0967,1.0989,1.0998,1.1023,1.101,1.1019,1.1039,1.1049,1.1076,1.1045,1.1078,1.1079,1.1074,1.113,1.1137,1.1182,1.1112,1.1113,1.1114,0,1.0847,1.0869,1.0918,1.094,1.0951,1.0973,1.0998,1.1019,1.104,1.1045,1.1062,1.1061,1.1091,1.1073,1.1114,1.1094,1.1108,1.1115,1.1117,1.112,1.1099,1.1135,1.1196,1.1203,1.1124,1.1123,1.1122,0,1.0878,1.092,1.0955,1.0966,1.0992,1.1008,1.102,1.1039,1.1055,1.1077,1.1088,1.1112,1.1126,1.1146,1.1152,1.1138,1.1195,1.1176,1.12,1.12,1.1212,1.1211,1.1277,1.122,1.122,1.122,1.1219,0,1.0925,1.0955,1.0969,1.099,1.1024,1.1031,1.1064,1.1075,1.1093,1.1116,1.1115,1.1138,1.1145,1.1169,1.1174,1.1209,1.1215,1.122,1.1221,1.122,1.122,1.123,1.1227,1.1221,1.1221,1.1221,1.122,0,1.0964,1.0975,1.1013,1.1036,1.1042,1.1067,1.1086,1.1107,1.1116,1.1147,1.1154,1.1168,1.1196,1.1205,1.1238,1.1242,1.1283,1.1281,1.1277,1.1277,1.1301,1.1299,1.1375,1.1386,1.1322,1.1322,1.1323,0,1.0994,1.1017,1.1043,1.106,1.1072,1.1098,1.1115,1.1123,1.1141,1.1167,1.1185,1.1213,1.1236,1.1281,1.1294,1.132,1.1319,1.1345,1.1323,1.1323,1.1321,1.132,1.1323,1.1348,1.1349,1.135,1.135,0,1.1045,1.105,1.1075,1.1102,1.1123,1.1144,1.1165,1.1178,1.1189,1.1209,1.1239,1.1257,1.1292,1.132,1.1347,1.1359,1.1357,1.1357,1.1364,1.1364,1.1361,1.1364,1.1288,1.1355,1.1355,1.1354,1.1354,1.1354,1.1081,1.1103,1.1125,1.1153,1.117,1.119,1.1212,1.1224,1.1249,1.1279,1.1282,1.1314,1.1336,1.1372,1.1386,1.1411,1.1404,1.1414,1.1416,1.1419,1.1422,1.1357,1.1416,1.1416,1.1415,1.1415,1.1415,0,1.1134,1.1148,1.1174,1.1204,1.1227,1.1224,1.1247,1.1266,1.1295,1.1315,1.1339,1.1373,1.1401,1.1418,1.1446,1.1463,1.1463,1.147,1.1469,1.1472,1.1426,1.1417,1.147,1.147,1.147,1.147,1.147,1.147,1.1164,1.12,1.1208,1.1253,1.1268,1.13,1.1314,1.1333,1.135,1.1389,1.1413,1.1423,1.1443,1.1472,1.1498,1.1502,1.1513,1.1522,1.1525,1.1481,1.1475,1.147,1.1462,1.1524,1.1524,1.157,1.157,1.157]},{"header":{"parameterUnit":"m.s-1","parameterCategory":1,"la1":30.2991,"la2":30.254,"lo1":-89.0895,"lo2":-89.0444,"dy":0.0017,"dx":0.0017,"nx":28,"ny":28,"refTime":"2025-02-26T09:00:00:Z","depth":0,"parameterNumber":3,"parameterNumberName":"V-component_of_WINDS"},"data":[0,0,0,0,0,0,0,0,0,0,0,0,0,0,0,0,0,0,0,0,0,0,0,0,0,0,0,0,0,0,0,0,0,0,0,0,0,0,0,0,0,0,0,0,0,0,0,0,0,0,0,0,0,0,0,0,0,0,-3.8414,-3.8414,0,-3.8419,-3.8419,-3.8419,-3.8379,-3.8377,-3.8376,-3.8375,-3.838,-3.8381,-3.8382,0,0,0,0,0,0,0,0,0,0,0,0,0,-3.8368,-3.8369,-3.8414,-3.8414,-3.8414,-3.8419,-3.8419,-3.8419,-3.8379,-3.8377,-3.8376,-3.8375,-3.8379,-3.8381,-3.8382,0,0,0,0,0,0,0,0,0,0,0,0,0,-3.8382,-3.837,-3.8414,-3.8394,-3.8393,-3.8419,-3.8419,-3.8419,-3.8379,-3.8377,-3.8376,-3.8374,-3.8379,-3.8381,-3.8382,-3.8427,0,0,-3.8388,-3.8389,0,0,0,0,0,0,0,0,-3.8381,-3.8384,-3.8397,-3.8396,-3.8394,-3.8396,-3.8405,-3.8422,-3.838,-3.8384,-3.8375,-3.8373,-3.8387,-3.8388,-3.8392,-3.8428,-3.8428,-3.8388,-3.8389,-3.839,-3.839,0,0,0,0,0,0,0,-3.8381,-3.8383,-3.8416,-3.8397,-3.8395,-3.8385,-3.8385,-3.8408,-3.8395,-3.8384,-3.8381,-3.8382,-3.8385,-3.8391,-3.8392,-3.8428,-3.8388,-3.8389,-3.8391,-3.8391,-3.8502,-3.8504,0,0,0,0,0,0,-3.8382,-3.8383,-3.8416,-3.8416,-3.8383,-3.8388,-3.8388,-3.8397,-3.8395,-3.8392,-3.8383,-3.838,-3.8389,-3.839,-3.8392,-3.8446,-3.839,-3.8391,-3.8392,-3.85,-3.8503,-3.8505,0,0,0,0,0,0,-3.8381,-3.8386,-3.8415,-3.8399,-3.8402,-3.839,-3.8401,-3.8398,-3.8404,-3.8394,-3.8392,-3.8391,-3.8387,-3.839,-3.8419,-3.8446,-3.8392,-3.8394,-3.8498,-3.8501,-3.8504,-3.8553,0,0,0,0,0,0,-3.838,-3.8385,-3.8402,-3.8399,-3.8403,-3.8443,-3.8403,-3.84,-3.8407,-3.8403,-3.8401,-3.8399,-3.8386,-3.8417,-3.8421,-3.8447,-3.8395,-3.8496,-3.85,-3.8503,-3.8549,-3.8557,-3.8564,0,0,0,0,0,-3.8379,-3.8415,-3.8403,-3.8407,-3.8424,-3.8444,-3.8446,-3.8431,-3.8409,-3.8426,-3.8421,-3.8399,-3.8442,-3.842,-3.8425,-3.8452,-3.8494,-3.8498,-3.8503,-3.8546,-3.8556,-3.8564,0,0,0,0,0,0,-3.8421,-3.8414,-3.8401,-3.8438,-3.8442,-3.8437,-3.8458,-3.8441,-3.8451,-3.8447,-3.8427,-3.8427,-3.846,-3.8459,-3.8435,-3.8496,-3.8464,-3.847,-3.8496,-3.8505,-3.8513,-3.8512,-3.8397,0,0,0,0,0,-3.8434,-3.8452,-3.8445,-3.8478,-3.8481,-3.847,-3.8478,-3.8466,-3.8469,-3.8471,-3.8467,-3.8471,-3.8485,-3.8495,-3.8508,-3.8549,-3.8549,-3.857,-3.8577,-3.8583,-3.8588,-3.8612,-3.8621,-3.8519,-3.8519,-3.8519,0,0,-3.8462,-3.8461,-3.8473,-3.8487,-3.8488,-3.8507,-3.8471,-3.8492,-3.8506,-3.8473,-3.8502,-3.85,-3.8503,-3.8539,-3.8555,-3.8539,-3.8617,-3.8589,-3.8594,-3.8595,-3.8617,-3.8627,-3.8635,-3.8522,-3.8521,-3.8521,0,0,-3.8523,-3.8524,-3.8552,-3.8555,-3.8559,-3.8551,-3.8558,-3.8556,-3.8554,-3.8582,-3.8559,-3.8575,-3.86,-3.8604,-3.8609,-3.8674,-3.8655,-3.8678,-3.8718,-3.8741,-3.8749,-3.8756,-3.878,-3.8789,-3.8683,-3.8683,-3.8683,0,-3.8557,-3.8585,-3.8569,-3.8592,-3.8599,-3.8572,-3.8601,-3.8604,-3.8612,-3.8617,-3.8599,-3.8632,-3.8631,-3.8669,-3.8685,-3.869,-3.8698,-3.8678,-3.8749,-3.8756,-3.8762,-3.8785,-3.8794,-3.8686,-3.8686,-3.8685,-3.8685,0,-3.8627,-3.8647,-3.867,-3.8679,-3.8688,-3.8714,-3.8703,-3.8714,-3.8702,-3.8697,-3.8727,-3.8726,-3.8739,-3.8747,-3.8734,-3.8783,-3.8773,-3.8753,-3.872,-3.8775,-3.8797,-3.8805,-3.869,-3.8689,-3.8688,-3.8688,0,0,-3.8713,-3.8715,-3.8724,-3.8728,-3.8731,-3.8746,-3.8771,-3.8785,-3.8796,-3.8802,-3.8824,-3.8846,-3.8828,-3.8834,-3.8822,-3.8842,-3.8895,-3.8819,-3.8819,-3.8834,-3.895,-3.8966,-3.8976,-3.8883,-3.8884,-3.8885,-3.895,0,-3.8774,-3.8817,-3.8805,-3.8848,-3.8867,-3.8843,-3.8865,-3.8869,-3.8865,-3.888,-3.8876,-3.8893,-3.8866,-3.887,-3.8889,-3.8885,-3.8918,-3.888,-3.8903,-3.8904,-3.8903,-3.8987,-3.9004,-3.9065,-3.8958,-3.896,-3.8961,0,-3.8849,-3.8861,-3.8907,-3.8909,-3.8916,-3.8936,-3.8948,-3.8963,-3.8968,-3.8964,-3.8972,-3.8956,-3.8982,-3.895,-3.8985,-3.8959,-3.8968,-3.8967,-3.8969,-3.8971,-3.8936,-3.8992,-3.9084,-3.9094,-3.8973,-3.8972,-3.8971,0,-3.8909,-3.8935,-3.8967,-3.8971,-3.8974,-3.8989,-3.8991,-3.8994,-3.9004,-3.9014,-3.9021,-3.9034,-3.9041,-3.9052,-3.9041,-3.9018,-3.9078,-3.9045,-3.9076,-3.9076,-3.9089,-3.9089,-3.9185,-3.9094,-3.9094,-3.9094,-3.9094,0,-3.8978,-3.9007,-3.8994,-3.9013,-3.9046,-3.9031,-3.9064,-3.9063,-3.9067,-3.9086,-3.9065,-3.9083,-3.9067,-3.9084,-3.9075,-3.9107,-3.911,-3.9107,-3.9105,-3.911,-3.911,-3.9115,-3.9111,-3.9096,-3.9096,-3.9095,-3.9095,0,-3.9049,-3.9042,-3.9075,-3.9075,-3.9076,-3.91,-3.9101,-3.9119,-3.9114,-3.9139,-3.9144,-3.9136,-3.9155,-3.9145,-3.9164,-3.9159,-3.92,-3.9191,-3.9198,-3.9196,-3.9228,-3.9226,-3.9331,-3.9344,-3.9245,-3.9246,-3.9247,0,-3.9094,-3.9116,-3.912,-3.9132,-3.9136,-3.9154,-3.9165,-3.9151,-3.9163,-3.9172,-3.9189,-3.9207,-3.922,-3.9252,-3.9248,-3.9263,-3.9255,-3.9291,-3.9257,-3.9262,-3.9257,-3.9256,-3.9259,-3.9298,-3.9299,-3.93,-3.9301,0,-3.9174,-3.917,-3.9186,-3.9201,-3.9214,-3.9225,-3.9234,-3.9245,-3.9233,-3.9247,-3.9267,-3.9277,-3.9298,-3.9316,-3.933,-3.9331,-3.9315,-3.9312,-3.932,-3.9325,-3.9329,-3.9329,-3.9218,-3.9309,-3.9309,-3.9308,-3.9307,-3.9307,-3.9234,-3.9254,-3.926,-3.9279,-3.9285,-3.9295,-3.9313,-3.9311,-3.9328,-3.9344,-3.9335,-3.9359,-3.9365,-3.9382,-3.9386,-3.9405,-3.939,-3.9402,-3.9405,-3.9408,-3.9413,-3.9326,-3.9407,-3.9406,-3.9406,-3.9406,-3.9406,0,-3.9315,-3.9318,-3.9336,-3.935,-3.9365,-3.9349,-3.9359,-3.9373,-3.9394,-3.9402,-3.9416,-3.944,-3.9458,-3.9456,-3.9473,-3.9488,-3.9481,-3.9493,-3.9492,-3.9493,-3.9424,-3.9416,-3.9499,-3.9499,-3.9499,-3.9499,-3.9499,-3.9499,-3.9358,-3.9391,-3.9388,-3.9424,-3.9427,-3.9451,-3.9458,-3.9467,-3.9473,-3.9501,-3.9516,-3.9516,-3.952,-3.9537,-3.9553,-3.9552,-3.9559,-3.9575,-3.9571,-3.9507,-3.9497,-3.9489,-3.9481,-3.9576,-3.9576,-3.9638,-3.9639,-3.9639]}]]